TimeEDT,TemperatureF,Dew PointF,Humidity,Sea Level PressureIn,VisibilityMPH,Wind Direction,Wind SpeedMPH,Gust SpeedMPH,PrecipitationIn,Events,Conditions,WindDirDegrees,DateUTC
12:54 AM,46.0,37.0,71,29.89,10.0,SSW,5.8,-,N/A,,Overcast,200,2013-10-19 04:54:00
1:54 AM,46.9,36.0,66,29.89,10.0,Calm,Calm,-,N/A,,Scattered Clouds,0,2013-10-19 05:54:00
2:54 AM,46.9,37.9,71,29.90,10.0,Calm,Calm,-,N/A,,Overcast,0,2013-10-19 06:54:00
3:54 AM,48.0,39.0,71,29.90,10.0,SSW,4.6,-,N/A,,Overcast,200,2013-10-19 07:54:00
4:54 AM,48.0,37.9,68,29.90,10.0,WSW,3.5,-,N/A,,Clear,240,2013-10-19 08:54:00
5:54 AM,43.0,37.9,82,29.92,10.0,SSW,5.8,-,N/A,,Partly Cloudy,200,2013-10-19 09:54:00
6:54 AM,43.0,37.0,80,29.92,10.0,SSW,3.5,-,N/A,,Partly Cloudy,210,2013-10-19 10:54:00
7:54 AM,44.1,37.9,79,29.93,10.0,SSW,3.5,-,N/A,,Clear,200,2013-10-19 11:54:00
8:54 AM,46.9,39.9,77,29.93,10.0,Calm,Calm,-,N/A,,Clear,0,2013-10-19 12:54:00
9:54 AM,53.1,42.1,66,29.91,10.0,Variable,3.5,-,N/A,,Clear,0,2013-10-19 13:54:00
10:54 AM,57.9,41.0,53,29.90,10.0,Variable,4.6,-,N/A,,Clear,0,2013-10-19 14:54:00
11:54 AM,59.0,41.0,51,29.89,10.0,SSW,10.4,17.3,N/A,,Clear,200,2013-10-19 15:54:00
12:54 PM,62.1,37.9,41,29.86,10.0,Variable,6.9,-,N/A,,Scattered Clouds,0,2013-10-19 16:54:00
1:54 PM,64.0,39.0,40,29.83,10.0,South,9.2,-,N/A,,Scattered Clouds,190,2013-10-19 17:54:00
2:54 PM,62.1,39.9,44,29.83,10.0,South,6.9,-,N/A,,Mostly Cloudy,180,2013-10-19 18:54:00
3:54 PM,61.0,41.0,48,29.81,10.0,SSW,5.8,-,N/A,,Mostly Cloudy,200,2013-10-19 19:54:00
4:54 PM,60.1,41.0,49,29.80,10.0,SSW,6.9,-,N/A,,Overcast,200,2013-10-19 20:54:00
5:54 PM,57.0,43.0,59,29.78,10.0,Calm,Calm,-,N/A,,Mostly Cloudy,0,2013-10-19 21:54:00
6:54 PM,55.0,44.1,67,29.77,10.0,Calm,Calm,-,N/A,,Overcast,0,2013-10-19 22:54:00
7:54 PM,53.1,45.0,74,29.74,10.0,Calm,Calm,-,N/A,,Overcast,0,2013-10-19 23:54:00
8:54 PM,55.9,41.0,57,29.71,10.0,Variable,4.6,-,N/A,,Scattered Clouds,0,2013-10-20 00:54:00
9:54 PM,55.9,39.9,55,29.71,10.0,Calm,Calm,-,N/A,,Overcast,0,2013-10-20 01:54:00
10:54 PM,52.0,44.1,74,29.71,9.0,SSW,9.2,19.6,0.01,Rain,Light Rain,200,2013-10-20 02:54:00
11:54 PM,48.9,46.0,90,29.69,7.0,Calm,Calm,-,0.04,Rain,Light Rain,0,2013-10-20 03:54:00